RYR29DU LEVC-EICK

Flight info

Callsign RYR29DU
Flight time N/A
Altitude 38000
Route CENTA N733 CJN/N0442F340 L150 RBO N867 GASMO/N0447F360 N867 BLV N75 DELOG DCT TURDO DCT TULTA/M077F360 DCT MAPAG DCT SOVIX SOVIX1G
Aircraft B738/M-SDE2E3FGHIRWXY/LB1

Departure

Time 2026-05-05 10:03
Airport Valencia Airport (LEVC)

Arrival

Time N/A
Airport Cork International Airport (EICK)
Time Latitude Longitude Altitude Speed Heading
2026-05-05 09:37 39.49004 -0.47225 208 ft 0 kts 18°
2026-05-05 09:53 39.48996 -0.47228 208 ft 2 kts 22°
2026-05-05 09:53 39.48981 -0.47237 213 ft 2 kts 32°
2026-05-05 09:54 39.48968 -0.47250 214 ft 2 kts 44°
2026-05-05 09:54 39.48957 -0.47266 211 ft 2 kts 59°
2026-05-05 09:54 39.48950 -0.47285 212 ft 2 kts 73°
2026-05-05 09:54 39.48947 -0.47307 212 ft 2 kts 88°
2026-05-05 09:55 39.48947 -0.47328 212 ft 2 kts 99°
2026-05-05 09:55 39.48951 -0.47348 211 ft 2 kts 109°
2026-05-05 09:55 39.48953 -0.47355 214 ft 0 kts 114°
2026-05-05 09:57 39.48929 -0.47294 213 ft 10 kts 116°
2026-05-05 09:58 39.48870 -0.47234 212 ft 15 kts 156°
2026-05-05 09:58 39.48753 -0.47151 215 ft 21 kts 132°
2026-05-05 09:58 39.48684 -0.46985 211 ft 21 kts 117°
2026-05-05 09:58 39.48622 -0.46826 218 ft 17 kts 122°
2026-05-05 09:59 39.48610 -0.46803 208 ft 0 kts 124°
2026-05-05 10:01 39.48608 -0.46799 208 ft 1 kts 124°
2026-05-05 10:01 39.48601 -0.46788 216 ft 1 kts 127°
2026-05-05 10:01 39.48595 -0.46778 214 ft 1 kts 131°
2026-05-05 10:02 39.48560 -0.46745 208 ft 12 kts 153°
2026-05-05 10:02 39.48482 -0.46752 209 ft 12 kts 214°
2026-05-05 10:02 39.48448 -0.46843 212 ft 12 kts 266°
2026-05-05 10:02 39.48522 -0.47084 217 ft 62 kts 296°
2026-05-05 10:03 39.48819 -0.47865 216 ft 129 kts 296°
2026-05-05 10:03 39.49295 -0.49123 375 ft 171 kts 296°
2026-05-05 10:03 39.49843 -0.50507 1187 ft 175 kts 296°
2026-05-05 10:03 39.50418 -0.51927 2081 ft 179 kts 296°
2026-05-05 10:04 39.50987 -0.53408 2822 ft 188 kts 296°
2026-05-05 10:04 39.51584 -0.54952 3584 ft 193 kts 296°
2026-05-05 10:04 39.52225 -0.56502 4275 ft 198 kts 298°
2026-05-05 10:04 39.52908 -0.58060 4872 ft 203 kts 298°
2026-05-05 10:05 39.53624 -0.59672 5377 ft 217 kts 297°
2026-05-05 10:05 39.54402 -0.61481 5654 ft 240 kts 297°
2026-05-05 10:05 39.55256 -0.63460 6057 ft 259 kts 298°
2026-05-05 10:05 39.56153 -0.65519 6858 ft 263 kts 297°
2026-05-05 10:06 39.57061 -0.67597 7695 ft 266 kts 297°
2026-05-05 10:06 39.57996 -0.69698 8450 ft 272 kts 297°
2026-05-05 10:06 39.58938 -0.71839 9264 ft 275 kts 297°
2026-05-05 10:06 39.59889 -0.74005 10034 ft 278 kts 296°
2026-05-05 10:07 39.60848 -0.76185 10791 ft 277 kts 296°
2026-05-05 10:07 39.61809 -0.78367 11555 ft 281 kts 295°
2026-05-05 10:07 39.62784 -0.80581 12353 ft 282 kts 295°
2026-05-05 10:07 39.63762 -0.82803 13054 ft 290 kts 294°
2026-05-05 10:08 39.64799 -0.85174 13240 ft 313 kts 295°
2026-05-05 10:08 39.65896 -0.87676 13497 ft 331 kts 295°
2026-05-05 10:08 39.67055 -0.90307 14068 ft 339 kts 295°
2026-05-05 10:08 39.68228 -0.92965 14845 ft 339 kts 294°
2026-05-05 10:09 39.69400 -0.95630 15623 ft 340 kts 294°
2026-05-05 10:09 39.70579 -0.98317 16372 ft 343 kts 294°
2026-05-05 10:09 39.71762 -1.01019 17110 ft 345 kts 294°
2026-05-05 10:09 39.72954 -1.03751 17815 ft 348 kts 293°
2026-05-05 10:10 39.74131 -1.06448 18539 ft 348 kts 293°
2026-05-05 10:10 39.75346 -1.09236 19144 ft 351 kts 292°
2026-05-05 10:10 39.76536 -1.11974 19741 ft 355 kts 292°
2026-05-05 10:10 39.77756 -1.14779 20399 ft 357 kts 292°
2026-05-05 10:11 39.78976 -1.17585 21038 ft 358 kts 292°
2026-05-05 10:11 39.80210 -1.20427 21630 ft 361 kts 292°
2026-05-05 10:11 39.81450 -1.23285 22204 ft 364 kts 292°
2026-05-05 10:11 39.82697 -1.26162 22786 ft 365 kts 292°
2026-05-05 10:12 39.83946 -1.29044 23342 ft 367 kts 291°
2026-05-05 10:12 39.85204 -1.31952 23771 ft 371 kts 291°
2026-05-05 10:12 39.86470 -1.34881 24240 ft 372 kts 291°
2026-05-05 10:12 39.87745 -1.37828 24733 ft 373 kts 291°
2026-05-05 10:13 39.89017 -1.40776 25199 ft 375 kts 291°
2026-05-05 10:13 39.90279 -1.43705 25643 ft 377 kts 291°
2026-05-05 10:13 39.91563 -1.46688 26065 ft 379 kts 291°
2026-05-05 10:13 39.92854 -1.49688 26487 ft 380 kts 291°
2026-05-05 10:14 39.94148 -1.52699 26950 ft 381 kts 291°
2026-05-05 10:14 39.95443 -1.55713 27358 ft 382 kts 291°
2026-05-05 10:14 39.96748 -1.58758 27716 ft 385 kts 291°
2026-05-05 10:14 39.98061 -1.61823 28099 ft 388 kts 291°
2026-05-05 10:15 39.99377 -1.64898 28490 ft 389 kts 291°
2026-05-05 10:15 40.00700 -1.67990 28891 ft 390 kts 290°
2026-05-05 10:15 40.02026 -1.71091 29273 ft 392 kts 290°
2026-05-05 10:15 40.03359 -1.74216 29607 ft 395 kts 290°
2026-05-05 10:16 40.04695 -1.77352 29911 ft 398 kts 290°
2026-05-05 10:16 40.06046 -1.80523 30209 ft 400 kts 290°
2026-05-05 10:16 40.07400 -1.83707 30475 ft 402 kts 290°
2026-05-05 10:16 40.08755 -1.86890 30895 ft 400 kts 290°
2026-05-05 10:17 40.10101 -1.90053 31330 ft 397 kts 290°
2026-05-05 10:17 40.11440 -1.93209 31706 ft 396 kts 290°
2026-05-05 10:17 40.12775 -1.96359 32027 ft 396 kts 291°
2026-05-05 10:17 40.14106 -1.99505 32374 ft 396 kts 291°
2026-05-05 10:18 40.15422 -2.02612 32743 ft 395 kts 291°
2026-05-05 10:18 40.16761 -2.05752 33091 ft 395 kts 291°
2026-05-05 10:18 40.18101 -2.08889 33409 ft 395 kts 291°
2026-05-05 10:18 40.19439 -2.12028 33738 ft 395 kts 291°
2026-05-05 10:19 40.20775 -2.15166 34066 ft 394 kts 291°
2026-05-05 10:19 40.22101 -2.18300 34298 ft 394 kts 291°
2026-05-05 10:19 40.23424 -2.21450 34467 ft 396 kts 291°
2026-05-05 10:19 40.24750 -2.24616 34694 ft 396 kts 291°
2026-05-05 10:20 40.26071 -2.27773 34952 ft 396 kts 291°
2026-05-05 10:20 40.27395 -2.30939 35184 ft 396 kts 291°
2026-05-05 10:20 40.28722 -2.34114 35378 ft 397 kts 291°
2026-05-05 10:20 40.30052 -2.37298 35604 ft 398 kts 291°
2026-05-05 10:21 40.31361 -2.40435 35819 ft 398 kts 291°
2026-05-05 10:21 40.32690 -2.43623 36039 ft 399 kts 292°
2026-05-05 10:21 40.34023 -2.46823 36238 ft 399 kts 292°
2026-05-05 10:21 40.35356 -2.50024 36419 ft 400 kts 292°
2026-05-05 10:22 40.36707 -2.53200 36595 ft 403 kts 295°
2026-05-05 10:22 40.38359 -2.56237 36759 ft 411 kts 304°
2026-05-05 10:22 40.40291 -2.59032 36963 ft 414 kts 305°
2026-05-05 10:22 40.42243 -2.61812 37151 ft 415 kts 305°
2026-05-05 10:23 40.44194 -2.64596 37316 ft 416 kts 305°
2026-05-05 10:23 40.46144 -2.67392 37514 ft 416 kts 305°
2026-05-05 10:23 40.48099 -2.70206 37699 ft 416 kts 305°
2026-05-05 10:23 40.50044 -2.73015 37877 ft 416 kts 306°
2026-05-05 10:24 40.51993 -2.75838 37993 ft 418 kts 306°
2026-05-05 10:24 40.53952 -2.78682 37979 ft 420 kts 306°
2026-05-05 10:24 40.57872 -2.84377 37980 ft 419 kts 306°
2026-05-05 10:25 40.61767 -2.90043 37989 ft 417 kts 306°
2026-05-05 10:25 40.65672 -2.95741 37995 ft 420 kts 306°
2026-05-05 10:26 40.69571 -3.01440 37992 ft 421 kts 306°
2026-05-05 10:26 40.73491 -3.07178 37983 ft 420 kts 306°
2026-05-05 10:27 40.77399 -3.12911 37982 ft 420 kts 306°
2026-05-05 10:27 40.81310 -3.18657 37984 ft 419 kts 306°
2026-05-05 10:28 40.83485 -3.21267 37965 ft 430 kts 321°
2026-05-05 10:28 40.86229 -3.22965 37989 ft 443 kts 337°
2026-05-05 10:28 40.89258 -3.23679 37977 ft 456 kts 353°
2026-05-05 10:28 40.92459 -3.23305 38014 ft 465 kts
2026-05-05 10:29 40.98854 -3.21815 38005 ft 469 kts
2026-05-05 10:29 41.05317 -3.20251 37995 ft 475 kts
2026-05-05 10:30 41.11827 -3.18746 37991 ft 473 kts
2026-05-05 10:30 41.18319 -3.17277 37993 ft 472 kts
2026-05-05 10:31 41.24777 -3.15822 37994 ft 470 kts
2026-05-05 10:31 41.31226 -3.14366 38002 ft 471 kts
2026-05-05 10:32 41.37725 -3.12895 38008 ft 475 kts
2026-05-05 10:32 41.44211 -3.11420 38007 ft 477 kts
2026-05-05 10:33 41.50770 -3.09927 38006 ft 478 kts
2026-05-05 10:33 41.57326 -3.08440 38006 ft 478 kts
2026-05-05 10:34 41.63869 -3.06955 37999 ft 476 kts
2026-05-05 10:34 41.70409 -3.05467 38004 ft 474 kts
2026-05-05 10:35 41.76857 -3.03993 38016 ft 472 kts
2026-05-05 10:35 41.83313 -3.02506 38008 ft 470 kts
2026-05-05 10:36 41.89755 -3.01018 38010 ft 468 kts
2026-05-05 10:36 41.96170 -2.99535 38009 ft 468 kts
2026-05-05 10:37 42.02611 -2.98045 38015 ft 471 kts
2026-05-05 10:37 42.09050 -2.96552 38009 ft 474 kts
2026-05-05 10:38 42.15561 -2.95037 38003 ft 475 kts
2026-05-05 10:38 42.22084 -2.93515 38011 ft 474 kts
2026-05-05 10:39 42.28569 -2.92000 37986 ft 471 kts
2026-05-05 10:39 42.33921 -2.90746 38006 ft 467 kts
2026-05-05 10:40 42.40306 -2.89250 38003 ft 464 kts
2026-05-05 10:40 42.46686 -2.88058 37986 ft 458 kts 356°
2026-05-05 10:41 42.53023 -2.88417 38000 ft 455 kts 353°
2026-05-05 10:41 42.59349 -2.88917 38010 ft 456 kts 353°
2026-05-05 10:42 42.68836 -2.89581 38020 ft 458 kts 353°
2026-05-05 10:43 42.75262 -2.89997 38027 ft 460 kts 353°
2026-05-05 10:43 42.81638 -2.90407 38031 ft 463 kts 354°
2026-05-05 10:44 42.88079 -2.90823 38025 ft 464 kts 354°
2026-05-05 10:44 42.94541 -2.91242 38033 ft 465 kts 354°
2026-05-05 10:45 43.01010 -2.91663 38016 ft 465 kts 354°
2026-05-05 10:45 43.07476 -2.92084 38026 ft 464 kts 354°
2026-05-05 10:46 43.13926 -2.92505 38031 ft 463 kts 354°
2026-05-05 10:46 43.20319 -2.92924 38016 ft 462 kts 354°
2026-05-05 10:47 43.26735 -2.93424 38014 ft 459 kts 348°
2026-05-05 10:47 43.32707 -2.96051 38027 ft 448 kts 329°
2026-05-05 10:48 43.37811 -3.00815 38028 ft 442 kts 320°
2026-05-05 10:48 43.42734 -3.05899 38018 ft 442 kts 320°
2026-05-05 10:49 43.47670 -3.10947 38018 ft 442 kts 321°
2026-05-05 10:49 43.52628 -3.15977 38013 ft 443 kts 321°
2026-05-05 10:50 43.57594 -3.21014 38019 ft 443 kts 321°
2026-05-05 10:50 43.62573 -3.26077 38016 ft 445 kts 321°
2026-05-05 10:51 43.67535 -3.31132 38013 ft 447 kts 321°
2026-05-05 10:51 43.72553 -3.36257 38005 ft 448 kts 321°
2026-05-05 10:52 43.77576 -3.41399 38006 ft 449 kts 321°
2026-05-05 10:52 43.82596 -3.46547 38003 ft 448 kts 321°
2026-05-05 10:53 43.87598 -3.51686 37985 ft 444 kts 321°
2026-05-05 10:53 43.92507 -3.56741 37992 ft 440 kts 321°
2026-05-05 10:54 43.97404 -3.61795 37993 ft 438 kts 321°
2026-05-05 10:54 44.02283 -3.66842 37993 ft 436 kts 321°
2026-05-05 10:55 44.07155 -3.71893 37993 ft 437 kts 321°
2026-05-05 10:55 44.12040 -3.76968 37997 ft 439 kts 321°
2026-05-05 10:56 44.16926 -3.82055 37996 ft 442 kts 321°
2026-05-05 10:56 44.21863 -3.87205 38000 ft 445 kts 321°
2026-05-05 10:57 44.26831 -3.92399 37999 ft 447 kts 321°
2026-05-05 10:57 44.31824 -3.97629 37993 ft 449 kts 321°
2026-05-05 10:58 44.36986 -4.02583 37990 ft 451 kts 326°
2026-05-05 10:58 44.42297 -4.07274 37986 ft 452 kts 326°
2026-05-05 10:59 44.47609 -4.11964 37985 ft 451 kts 326°
2026-05-05 10:59 44.52886 -4.16677 37986 ft 449 kts 326°
2026-05-05 11:00 44.58136 -4.21403 37982 ft 447 kts 326°
2026-05-05 11:00 44.63325 -4.26091 37984 ft 445 kts 326°
2026-05-05 11:01 44.68533 -4.30807 37983 ft 444 kts 326°
2026-05-05 11:01 44.73711 -4.35506 37984 ft 442 kts 326°
2026-05-05 11:02 44.78878 -4.40203 37991 ft 442 kts 326°
2026-05-05 11:02 44.84034 -4.44902 37994 ft 441 kts 326°
2026-05-05 11:03 44.89196 -4.49615 37990 ft 442 kts 326°
2026-05-05 11:03 44.94331 -4.54315 37986 ft 442 kts 326°
2026-05-05 11:04 44.99500 -4.59055 37990 ft 443 kts 326°
2026-05-05 11:04 45.04683 -4.63818 37990 ft 444 kts 326°
2026-05-05 11:05 45.09878 -4.68604 37991 ft 445 kts 326°
2026-05-05 11:05 45.15075 -4.73401 37992 ft 446 kts 326°
2026-05-05 11:06 45.20270 -4.78208 37986 ft 446 kts 326°
2026-05-05 11:06 45.25415 -4.82978 37988 ft 444 kts 326°
2026-05-05 11:07 45.30591 -4.87789 37989 ft 443 kts 326°
2026-05-05 11:07 45.35739 -4.92583 37987 ft 442 kts 326°
2026-05-05 11:08 45.40881 -4.97382 37988 ft 442 kts 326°
2026-05-05 11:08 45.46014 -5.02185 37988 ft 441 kts 326°
2026-05-05 11:09 45.51146 -5.06996 37990 ft 441 kts 326°
2026-05-05 11:09 45.56243 -5.11786 37988 ft 441 kts 326°
2026-05-05 11:10 45.61365 -5.16609 37987 ft 441 kts 326°
2026-05-05 11:10 45.66484 -5.21440 37992 ft 441 kts 326°
2026-05-05 11:11 45.71612 -5.26292 37988 ft 441 kts 326°
2026-05-05 11:11 45.76730 -5.31144 37994 ft 442 kts 326°
2026-05-05 11:12 45.81858 -5.36016 37994 ft 442 kts 326°
2026-05-05 11:12 45.86987 -5.40900 37995 ft 442 kts 326°
2026-05-05 11:13 45.92115 -5.45795 37993 ft 443 kts 326°
2026-05-05 11:13 45.97244 -5.50701 37996 ft 443 kts 326°
2026-05-05 11:14 46.02350 -5.55597 37992 ft 444 kts 326°
2026-05-05 11:14 46.07481 -5.60527 37995 ft 444 kts 326°
2026-05-05 11:15 46.12621 -5.65477 37995 ft 444 kts 326°
2026-05-05 11:15 46.17759 -5.70438 37999 ft 444 kts 326°
2026-05-05 11:16 46.22896 -5.75407 37997 ft 444 kts 326°
2026-05-05 11:16 46.28027 -5.80383 37998 ft 444 kts 326°
2026-05-05 11:17 46.33157 -5.85369 38001 ft 444 kts 326°
2026-05-05 11:17 46.38280 -5.90361 37998 ft 443 kts 326°
2026-05-05 11:18 46.43393 -5.95354 38003 ft 443 kts 326°
2026-05-05 11:18 46.48470 -6.00323 38004 ft 442 kts 326°
2026-05-05 11:19 46.53572 -6.05327 38003 ft 442 kts 326°
2026-05-05 11:19 46.58670 -6.10340 38005 ft 442 kts 326°
2026-05-05 11:20 46.63751 -6.15347 38006 ft 441 kts 326°
2026-05-05 11:20 46.68824 -6.20358 38010 ft 440 kts 327°
2026-05-05 11:21 46.73888 -6.25371 38011 ft 440 kts 327°
2026-05-05 11:21 46.78943 -6.30388 38007 ft 439 kts 327°
2026-05-05 11:22 46.83991 -6.35409 38012 ft 439 kts 327°
2026-05-05 11:22 46.89000 -6.40403 37988 ft 428 kts 327°
2026-05-05 11:22 46.91385 -6.42786 37998 ft 415 kts 327°
2026-05-05 11:23 46.93769 -6.45171 38008 ft 414 kts 327°
2026-05-05 11:23 46.98499 -6.49906 38009 ft 409 kts 327°